Location: Valdosta
(30.8330°N, 83.2790°W)
Time: 08:59:10
(UTC-04:00)

Amateur Radio Satellites - All Passes

Search period start: 30 October 2014 08:29
Search period end: 31 October 2014 08:29
Location: Valdosta, 30.8330°N, 83.2790°W

Satellite Date Start Highest point End Downlink Frequencies (MHz)
Time Altitude Azimuth
PANSAT 30 Oct 08:55:50 08:59:26 40° 193° (SSW) 09:03:02 not established
MaSat-1 30 Oct 08:57:42 08:59:58 36° 66° (ENE) 09:02:10 437.345 MHz
SO-67 30 Oct 09:27:57 09:29:55 15° 288° (WNW) 09:31:52 435.3500 MHz FM
ISS 30 Oct 09:50:48 09:53:20 21° 128° (SE) 09:55:52 145.800 FM
HO-68 30 Oct 09:55:54 10:02:37 41° 100° (E) 10:09:16 435.675 MHz FM
AO-40 30 Oct 10:03:28 10:09:18 13° 212° (SSW) 10:12:57 Beacon 2401.320
Oscar 11 30 Oct 10:14:21 10:16:43 14° 94° (E) 10:19:04 145.825 FM, Beacon 2401.500 USB
RS-15 30 Oct 10:22:37 10:27:40 14° 260° (W) 10:32:48 29.354 - 29.394 USB, Beacon 29.352 USB
KITSAT 1 30 Oct 10:24:36 10:30:49 25° 105° (ESE) 10:37:01 435.175 FM
PANSAT 30 Oct 10:36:58 10:39:10 15° 204° (SSW) 10:41:22 not established
UKube-1 30 Oct 11:12:32 11:16:55 83° 103° (ESE) 11:21:15 145.840 MHz, 145.915 MHz
ZACube-1 30 Oct 11:19:22 11:23:11 34° 98° (E) 11:26:57 437.345 MHz
ISS 30 Oct 11:27:05 11:29:54 25° 321° (NW) 11:32:43 145.800 FM
SO-50 30 Oct 11:43:15 11:47:39 65° 115° (ESE) 11:52:10 436.795 FM
HO-68 30 Oct 11:43:57 11:50:01 31° 294° (WNW) 11:56:05 435.675 MHz FM
Sapphire 30 Oct 11:45:35 11:48:22 14° 52° (NE) 11:51:08 437.095 MHz 1200 baud AX-25 AFSK
Oscar 11 30 Oct 11:49:02 11:52:56 34° 287° (WNW) 11:56:50 145.825 FM, Beacon 2401.500 USB
FUNcube-1 30 Oct 12:02:19 12:06:26 63° 284° (WNW) 12:10:31 145.950 - 145.970 MHz USB
PCSat 30 Oct 12:06:13 12:10:31 23° 57° (ENE) 12:14:47 145.825 MHz
KITSAT 1 30 Oct 12:17:44 12:25:37 57° 299° (WNW) 12:33:33 435.175 FM
UOSAT-12 30 Oct 12:35:21 12:38:21 17° 108° (ESE) 12:41:23 437.025 FM, 437.400 FM
ZACube-1 30 Oct 12:57:06 12:59:13 14° 291° (WNW) 13:01:20 437.345 MHz
Oscar 19 30 Oct 13:13:27 13:16:14 15° 66° (ENE) 13:19:00 437.125 CW, 437.150 USB
Sapphire 30 Oct 13:26:51 13:32:14 68° 248° (WSW) 13:37:36 437.095 MHz 1200 baud AX-25 AFSK
SO-50 30 Oct 13:27:03 13:28:38 12° 311° (NW) 13:30:13 436.795 FM
AO-27 30 Oct 13:47:29 13:49:37 13° 65° (ENE) 13:51:46 436.795 MHz FM
PCSat 30 Oct 13:49:01 13:53:58 37° 251° (WSW) 13:58:53 145.825 MHz
Oscar 16 30 Oct 13:57:51 14:02:45 45° 73° (ENE) 14:07:38 437.025 USB, Beacon 2401.1428
JAS-1B 30 Oct 14:11:39 14:17:24 54° 73° (ENE) 14:22:54 435.800 - 435.900 CW/SSB
UOSAT-12 30 Oct 14:13:52 14:18:08 37° 302° (WNW) 14:22:30 437.025 FM, 437.400 FM
KITSAT 1 30 Oct 14:21:24 14:22:50 11° 320° (NW) 14:24:17 435.175 FM
Uribyol 2 30 Oct 14:28:51 14:33:36 37° 72° (ENE) 14:38:22 436.500 FM
ITAMSAT 1 30 Oct 14:36:24 14:41:15 41° 72° (ENE) 14:46:07 435.822 SSB
AO-Echo 30 Oct 14:41:57 14:46:46 62° 75° (ENE) 14:51:48 ?
Oscar 19 30 Oct 14:50:05 14:55:05 51° 260° (W) 15:00:05 437.125 CW, 437.150 USB
Saudisat 1A 30 Oct 15:03:23 15:05:41 14° 51° (NE) 15:07:58 436.775 MHz
AO-7 30 Oct 15:07:09 15:10:18 13° 55° (NE) 15:13:27 29.400 - 29.500 MHz
AO-27 30 Oct 15:23:22 15:28:31 63° 259° (WSW) 15:33:42 436.795 MHz FM
Gurwin Techsat 1B 30 Oct 15:32:31 15:37:48 78° 76° (ENE) 15:43:07 435.225 FM
Oscar 16 30 Oct 15:39:09 15:42:13 16° 266° (W) 15:45:18 437.025 USB, Beacon 2401.1428
TMSAT-1 30 Oct 15:39:40 15:44:54 66° 75° (ENE) 15:50:10 436.925 FM
JAS-1B 30 Oct 16:05:41 16:08:21 13° 265° (W) 16:10:58 435.800 - 435.900 CW/SSB
Uribyol 2 30 Oct 16:09:18 16:13:05 20° 264° (W) 16:16:54 436.500 FM
ITAMSAT 1 30 Oct 16:17:20 16:20:49 18° 265° (W) 16:24:19 435.822 SSB
AO-Echo 30 Oct 16:25:04 16:25:55 10° 268° (W) 16:26:46 ?
Uosat F 30 Oct 16:33:12 16:37:25 28° 70° (ENE) 16:41:38 435.120 FM
Saudisat 1A 30 Oct 16:41:13 16:45:29 49° 246° (WSW) 16:49:44 436.775 MHz
AO-7 30 Oct 16:53:28 17:01:42 76° 71° (ENE) 17:09:58 29.400 - 29.500 MHz
TMSAT-1 30 Oct 17:23:54 17:25:09 11° 268° (W) 17:26:25 436.925 FM
JAS-2 30 Oct 17:44:57 17:50:33 40° 69° (ENE) 17:56:50 435.800 - 435.900 CW/SSB, 435.910 FM
ISS 30 Oct 17:59:44 18:02:33 25° 39° (NE) 18:05:21 145.800 FM
Uosat F 30 Oct 18:11:57 18:16:04 25° 263° (W) 18:20:13 435.120 FM
Hamsat 30 Oct 18:24:08 18:28:11 50° 76° (ENE) 18:32:14 145.90 MHz
OPAL 30 Oct 18:41:57 18:46:51 63° 103° (ESE) 18:51:45 ?
AO-40 30 Oct 18:44:03 01:14:43 56° 183° (S) 05:08:04 Beacon 2401.320
AO-7 30 Oct 18:49:59 18:55:01 17° 265° (W) 19:00:06 29.400 - 29.500 MHz
JAS-2 30 Oct 19:30:52 19:35:44 25° 267° (W) 19:41:06 435.800 - 435.900 CW/SSB, 435.910 FM
ISS 30 Oct 19:36:31 19:39:08 21° 232° (SW) 19:41:44 145.800 FM
SO-67 30 Oct 19:53:33 19:56:57 70° 78° (ENE) 20:00:22 435.3500 MHz FM
RS-15 30 Oct 20:13:20 20:21:28 24° 103° (ESE) 20:29:26 29.354 - 29.394 USB, Beacon 29.352 USB
KITSAT 1 30 Oct 20:17:34 20:24:22 29° 53° (NE) 20:31:07 435.175 FM
HO-68 30 Oct 20:20:47 20:25:14 18° 61° (ENE) 20:29:41 435.675 MHz FM
SO-50 30 Oct 20:21:09 20:24:09 16° 51° (NE) 20:27:09 436.795 FM
OPAL 30 Oct 20:23:31 20:25:09 12° 297° (WNW) 20:26:48 ?
STRAND 1 30 Oct 20:36:50 20:41:57 70° 285° (WNW) 20:47:01 ?
SO-50 30 Oct 22:00:14 22:04:58 52° 246° (WSW) 22:09:42 436.795 FM
UKube-1 30 Oct 22:02:44 22:06:40 34° 73° (ENE) 22:10:37 145.840 MHz, 145.915 MHz
HO-68 30 Oct 22:05:02 22:12:10 72° 256° (WSW) 22:19:21 435.675 MHz FM
ZACube-1 30 Oct 22:11:24 22:14:15 17° 70° (ENE) 22:17:04 437.345 MHz
KITSAT 1 30 Oct 22:12:14 22:20:01 54° 250° (WSW) 22:27:47 435.175 FM
RS-15 30 Oct 22:21:42 22:32:43 71° 299° (WNW) 22:43:38 29.354 - 29.394 USB, Beacon 29.352 USB
MaSat-1 30 Oct 22:26:40 22:30:36 47° 109° (ESE) 22:34:13 437.345 MHz
Oscar 11 30 Oct 22:37:58 22:42:18 88° 78° (ENE) 22:46:37 145.825 FM, Beacon 2401.500 USB
UOSAT-12 30 Oct 22:48:27 22:52:54 41° 58° (ENE) 22:57:14 437.025 FM, 437.400 FM
FUNcube-1 30 Oct 22:52:41 22:57:06 50° 75° (ENE) 23:01:27 145.950 - 145.970 MHz USB
UKube-1 30 Oct 23:40:24 23:42:53 15° 265° (W) 23:45:23 145.840 MHz, 145.915 MHz
ZACube-1 30 Oct 23:46:08 23:50:19 35° 262° (W) 23:54:27 437.345 MHz
UOSAT-12 31 Oct 00:29:50 00:32:38 16° 252° (WSW) 00:35:24 437.025 FM, 437.400 FM
FUNcube-1 31 Oct 00:32:27 00:33:37 11° 267° (W) 00:34:48 145.950 - 145.970 MHz USB
RS-15 31 Oct 00:40:47 00:47:21 17° 323° (NW) 00:53:57 29.354 - 29.394 USB, Beacon 29.352 USB
JAS-1B 31 Oct 01:59:52 02:06:03 26° 98° (E) 02:12:59 435.800 - 435.900 CW/SSB
Oscar 16 31 Oct 02:15:36 02:19:47 25° 97° (E) 02:23:56 437.025 USB, Beacon 2401.1428
Sapphire 31 Oct 02:20:21 02:25:11 35° 108° (ESE) 02:30:02 437.095 MHz 1200 baud AX-25 AFSK
PCSat 31 Oct 02:41:31 02:46:49 63° 112° (ESE) 02:52:11 145.825 MHz
Uribyol 2 31 Oct 02:47:50 02:51:39 21° 96° (E) 02:55:26 436.500 FM
AO-Echo 31 Oct 02:55:00 02:59:45 33° 97° (E) 03:04:25 ?
ITAMSAT 1 31 Oct 02:55:25 02:59:31 23° 96° (E) 03:03:35 435.822 SSB
Oscar 19 31 Oct 03:07:03 03:12:11 89° 102° (ESE) 03:17:19 437.125 CW, 437.150 USB
PANSAT 31 Oct 03:31:35 03:34:09 17° 157° (SSE) 03:36:44 not established
AO-27 31 Oct 03:41:58 03:47:12 76° 102° (ESE) 03:52:23 436.795 MHz FM
JAS-1B 31 Oct 03:49:21 03:56:32 56° 287° (WNW) 04:05:03 435.800 - 435.900 CW/SSB
Gurwin Techsat 1B 31 Oct 03:54:29 03:59:38 50° 100° (E) 04:04:45 435.225 FM
Oscar 16 31 Oct 03:54:40 03:59:01 29° 289° (WNW) 04:03:22 437.025 USB, Beacon 2401.1428
TMSAT-1 31 Oct 04:01:19 04:06:19 41° 99° (E) 04:11:17 436.925 FM
Sapphire 31 Oct 04:04:12 04:08:35 25° 303° (WNW) 04:13:01 437.095 MHz 1200 baud AX-25 AFSK
Uribyol 2 31 Oct 04:26:26 04:31:08 36° 289° (WNW) 04:35:48 436.500 FM
PCSat 31 Oct 04:27:37 04:30:38 15° 307° (NW) 04:33:40 145.825 MHz
AO-Echo 31 Oct 04:34:05 04:38:15 24° 291° (WNW) 04:42:22 ?
ITAMSAT 1 31 Oct 04:34:22 04:38:57 32° 289° (WNW) 04:43:30 435.822 SSB
Uosat F 31 Oct 04:47:54 04:50:10 13° 94° (E) 04:52:26 435.120 FM
AO-7 31 Oct 05:01:46 05:09:15 36° 100° (E) 05:16:42 29.400 - 29.500 MHz
Saudisat 1A 31 Oct 05:06:16 05:07:23 11° 107° (ESE) 05:08:29 436.775 MHz
PANSAT 31 Oct 05:10:15 05:13:55 43° 168° (SSE) 05:17:35 not established
RS-15 31 Oct 05:18:56 05:26:37 20° 40° (NE) 05:34:25 29.354 - 29.394 USB, Beacon 29.352 USB
AO-27 31 Oct 05:25:24 05:26:00 10° 296° (WNW) 05:26:35 436.795 MHz FM
Gurwin Techsat 1B 31 Oct 05:35:58 05:39:08 16° 293° (WNW) 05:42:17 435.225 FM
TMSAT-1 31 Oct 05:42:14 05:45:52 19° 292° (WNW) 05:49:29 436.925 FM
OPAL 31 Oct 05:51:26 05:56:29 61° 73° (ENE) 06:01:29 ?
Hamsat 31 Oct 06:16:38 06:18:49 14° 94° (E) 06:21:00 145.90 MHz
Uosat F 31 Oct 06:24:16 06:29:10 52° 286° (WNW) 06:34:02 435.120 FM
Saudisat 1A 31 Oct 06:42:11 06:46:25 51° 300° (WNW) 06:50:43 436.775 MHz
JAS-2 31 Oct 06:44:05 06:51:54 65° 101° (E) 06:59:16 435.800 - 435.900 CW/SSB, 435.910 FM
PANSAT 31 Oct 06:50:06 06:53:54 61° 181° (S) 06:57:42 not established
AO-7 31 Oct 06:54:18 07:01:56 42° 294° (WNW) 07:09:35 29.400 - 29.500 MHz
RS-15 31 Oct 07:29:33 07:40:54 79° 63° (ENE) 07:52:44 29.354 - 29.394 USB, Beacon 29.352 USB
OPAL 31 Oct 07:33:59 07:35:36 11° 265° (W) 07:37:14 ?
STRAND 1 31 Oct 07:47:06 07:52:14 85° 257° (WSW) 07:57:24 ?
Hamsat 31 Oct 07:50:57 07:54:48 35° 286° (WNW) 07:58:40 145.90 MHz
MaSat-1 31 Oct 08:17:35 08:18:44 13° 62° (ENE) 08:19:52 437.345 MHz
